User: anonymous   Login
Location: Unspecified
(0.0000°N, 0.0000°E)
Time: 06:17:42
(UTC+00:00)
Language:

NOAA 9 - Orbit

View from above orbital plane
View from above orbital plane
View from above satellite
View from above satellite

Ground track
Ground track

The orbit data is extracted from the following two-line orbital elements,

1 15427U 84123A   17119.92650021 +.00000012 +00000-0 +28178-4 0  9994
2 15427 098.7996 064.4750 0015940 097.0317 304.9222 14.15996839671316
Epoch (UTC): 29 April 2017 22:14:09
Eccentricity: 0.0015940
inclination: 98.7996°
perigee height: 827 km
apogee height: 850 km
right ascension of ascending node: 64.4750°
argument of perigee: 97.0317°
revolutions per day: 14.15996839
mean anomaly at epoch: 304.9222°
orbit number at epoch: 67131

The dashed part of the orbit path shows where the satellite is in the earth's shadow,  

DLR